UAL232 KMCO-LIMC

Flight info

Callsign UAL232
Flight time N/A
Altitude 37000
Route FATHE4 VIYAP Q87 JROSS Q135 RAPZZ PRONI PUNGO PHITZ DWSEN KW54A PREPI KB63C MONTK VITOL NANSO N55B RAFIN 4550N 4740N 4730N 4720N 4715N SEPAL UN470 LAPEX GALOF PECNO VALKU TIS MEBAK GIPNO BALSI GIGUS MEDAM LAPRI MOGBO TOP M135 ASTIG
Aircraft B77W/H-SDE1E2E3FGHIJ2J3J4J5M1RWXY/LB1D1

Departure

Time 2026-04-25 12:45
Airport Orlando International Airport (KMCO)

Arrival

Time N/A
Airport Milan Malpensa International Airport (LIMC)
Time Latitude Longitude Altitude Speed Heading
2026-04-25 11:56 28.42707 -81.30388 99 ft 0 kts 99°
2026-04-25 11:59 28.42750 -81.30344 100 ft 0 kts 171°
2026-04-25 11:59 28.42757 -81.30345 100 ft 0 kts 171°
2026-04-25 12:21 28.42765 -81.30347 100 ft 4 kts 165°
2026-04-25 12:21 28.42786 -81.30358 99 ft 4 kts 145°
2026-04-25 12:21 28.42802 -81.30364 98 ft 4 kts 192°
2026-04-25 12:21 28.42816 -81.30359 99 ft 4 kts 216°
2026-04-25 12:22 28.42836 -81.30332 100 ft 2 kts 237°
2026-04-25 12:22 28.42838 -81.30330 99 ft 0 kts 237°
2026-04-25 12:31 28.42837 -81.30331 99 ft 2 kts 237°
2026-04-25 12:31 28.42808 -81.30382 103 ft 14 kts 237°
2026-04-25 12:31 28.42713 -81.30464 101 ft 18 kts 191°
2026-04-25 12:32 28.42597 -81.30420 101 ft 18 kts 144°
2026-04-25 12:32 28.42509 -81.30403 103 ft 9 kts 179°
2026-04-25 12:32 28.42491 -81.30403 103 ft 0 kts 179°
2026-04-25 12:33 28.42485 -81.30403 103 ft 5 kts 179°
2026-04-25 12:33 28.42403 -81.30402 101 ft 15 kts 179°
2026-04-25 12:34 28.42358 -81.30352 103 ft 10 kts 95°
2026-04-25 12:34 28.42359 -81.30272 102 ft 10 kts 89°
2026-04-25 12:34 28.42359 -81.30184 102 ft 12 kts 90°
2026-04-25 12:34 28.42360 -81.30118 102 ft 13 kts 89°
2026-04-25 12:35 28.42362 -81.29966 99 ft 16 kts 89°
2026-04-25 12:35 28.42363 -81.29838 99 ft 17 kts 89°
2026-04-25 12:35 28.42363 -81.29738 99 ft 2 kts 89°
2026-04-25 12:35 28.42363 -81.29725 99 ft 2 kts 89°
2026-04-25 12:36 28.42363 -81.29712 99 ft 2 kts 89°
2026-04-25 12:36 28.42364 -81.29675 99 ft 9 kts 89°
2026-04-25 12:36 28.42365 -81.29559 99 ft 19 kts 90°
2026-04-25 12:36 28.42366 -81.29405 98 ft 20 kts 89°
2026-04-25 12:37 28.42364 -81.29295 98 ft 13 kts 102°
2026-04-25 12:37 28.42301 -81.29241 101 ft 9 kts 140°
2026-04-25 12:37 28.42287 -81.29167 100 ft 12 kts 87°
2026-04-25 12:37 28.42311 -81.29037 103 ft 23 kts 72°
2026-04-25 12:38 28.42364 -81.28863 109 ft 24 kts 70°
2026-04-25 12:38 28.42419 -81.28685 104 ft 24 kts 71°
2026-04-25 12:38 28.42476 -81.28503 101 ft 25 kts 70°
2026-04-25 12:38 28.42512 -81.28390 100 ft 13 kts 66°
2026-04-25 12:39 28.42559 -81.28364 104 ft 8 kts
2026-04-25 12:39 28.42636 -81.28364 101 ft 16 kts 359°
2026-04-25 12:39 28.42770 -81.28365 101 ft 20 kts 360°
2026-04-25 12:39 28.42908 -81.28367 100 ft 20 kts 359°
2026-04-25 12:40 28.43045 -81.28369 102 ft 20 kts 359°
2026-04-25 12:40 28.43182 -81.28371 102 ft 20 kts 360°
2026-04-25 12:40 28.43320 -81.28371 101 ft 20 kts 359°
2026-04-25 12:40 28.43455 -81.28373 100 ft 20 kts 359°
2026-04-25 12:41 28.43593 -81.28374 101 ft 20 kts 359°
2026-04-25 12:41 28.43730 -81.28375 101 ft 20 kts 359°
2026-04-25 12:41 28.43867 -81.28377 102 ft 20 kts 359°
2026-04-25 12:41 28.44004 -81.28378 104 ft 20 kts 359°
2026-04-25 12:42 28.44142 -81.28379 102 ft 20 kts 360°
2026-04-25 12:42 28.44233 -81.28381 101 ft 20 kts 359°
2026-04-25 12:42 28.44328 -81.28379 101 ft 10 kts 14°
2026-04-25 12:42 28.44356 -81.28314 103 ft 10 kts 88°
2026-04-25 12:43 28.44317 -81.28261 104 ft 10 kts 170°
2026-04-25 12:43 28.44286 -81.28258 106 ft 0 kts 178°
2026-04-25 12:43 28.44261 -81.28257 104 ft 17 kts 178°
2026-04-25 12:44 28.43893 -81.28254 104 ft 89 kts 179°
2026-04-25 12:44 28.43050 -81.28245 101 ft 151 kts 179°
2026-04-25 12:44 28.40458 -81.28211 581 ft 203 kts 178°
2026-04-25 12:45 28.39080 -81.27991 1221 ft 196 kts 156°
2026-04-25 12:45 28.38038 -81.26995 1742 ft 202 kts 121°
2026-04-25 12:45 28.37778 -81.23533 2291 ft 247 kts 84°
2026-04-25 12:46 28.37986 -81.21586 2985 ft 250 kts 83°
2026-04-25 12:46 28.38197 -81.19589 3604 ft 259 kts 83°
2026-04-25 12:46 28.38411 -81.17526 4248 ft 267 kts 83°
2026-04-25 12:46 28.38628 -81.15410 4974 ft 272 kts 83°
2026-04-25 12:47 28.38845 -81.13274 5774 ft 272 kts 81°
2026-04-25 12:47 28.39479 -81.11271 6354 ft 275 kts 51°
2026-04-25 12:47 28.40999 -81.09980 6959 ft 277 kts 16°
2026-04-25 12:47 28.42891 -81.09859 7626 ft 276 kts 343°
2026-04-25 12:48 28.44593 -81.10835 8271 ft 276 kts 328°
2026-04-25 12:48 28.46321 -81.11839 8841 ft 282 kts 336°
2026-04-25 12:48 28.48147 -81.12678 9610 ft 283 kts 338°
2026-04-25 12:48 28.49984 -81.13482 10321 ft 285 kts 338°
2026-04-25 12:49 28.51891 -81.14318 10617 ft 304 kts 338°
2026-04-25 12:49 28.53937 -81.15224 10801 ft 326 kts 338°
2026-04-25 12:49 28.56123 -81.16200 10980 ft 349 kts 338°
2026-04-25 12:49 28.58442 -81.17240 11340 ft 365 kts 338°
2026-04-25 12:50 28.60832 -81.18315 11943 ft 373 kts 337°
2026-04-25 12:50 28.63253 -81.19407 12665 ft 377 kts 337°
2026-04-25 12:50 28.65701 -81.20512 13446 ft 380 kts 337°
2026-04-25 12:50 28.68168 -81.21628 14155 ft 383 kts 337°
2026-04-25 12:51 28.70654 -81.22753 14839 ft 387 kts 337°
2026-04-25 12:51 28.73175 -81.23897 15513 ft 391 kts 337°
2026-04-25 12:51 28.75708 -81.25051 16205 ft 394 kts 337°
2026-04-25 12:51 28.78234 -81.26198 16888 ft 397 kts 337°
2026-04-25 12:52 28.80813 -81.27363 17547 ft 402 kts 338°
2026-04-25 12:52 28.83496 -81.28352 18170 ft 407 kts 344°
2026-04-25 12:52 28.86285 -81.29017 18738 ft 412 kts 349°
2026-04-25 12:52 28.89151 -81.29346 19329 ft 416 kts 354°
2026-04-25 12:53 28.92048 -81.29556 19936 ft 419 kts 354°
2026-04-25 12:53 28.94969 -81.29774 20509 ft 422 kts 354°
2026-04-25 12:53 28.97915 -81.30015 21093 ft 426 kts 354°
2026-04-25 12:53 29.00880 -81.30253 21649 ft 429 kts 354°
2026-04-25 12:54 29.03877 -81.30446 22185 ft 433 kts 355°
2026-04-25 12:54 29.06895 -81.30617 22736 ft 436 kts 355°
2026-04-25 12:54 29.09945 -81.30783 23264 ft 440 kts 355°
2026-04-25 12:54 29.13012 -81.30949 23749 ft 443 kts 355°
2026-04-25 12:55 29.16102 -81.31122 24184 ft 446 kts 355°
2026-04-25 12:55 29.18162 -81.31238 24467 ft 448 kts 355°
2026-04-25 12:55 29.22338 -81.31477 25084 ft 451 kts 355°
2026-04-25 12:55 29.25473 -81.31659 25509 ft 453 kts 355°
2026-04-25 12:56 29.28639 -81.31845 25916 ft 456 kts 356°
2026-04-25 12:56 29.31819 -81.32032 26342 ft 459 kts 356°
2026-04-25 12:56 29.35011 -81.32220 26757 ft 461 kts 356°
2026-04-25 12:56 29.38230 -81.32409 27167 ft 464 kts 356°
2026-04-25 12:57 29.41456 -81.32598 27561 ft 466 kts 356°
2026-04-25 12:57 29.44703 -81.32789 27937 ft 468 kts 356°
2026-04-25 12:57 29.47969 -81.32981 28305 ft 471 kts 356°
2026-04-25 12:57 29.51243 -81.33173 28653 ft 473 kts 356°
2026-04-25 12:58 29.54539 -81.33368 29001 ft 475 kts 356°
2026-04-25 12:58 29.57852 -81.33564 29340 ft 477 kts 356°
2026-04-25 12:58 29.61173 -81.33760 29677 ft 479 kts 357°
2026-04-25 12:58 29.64498 -81.33955 29992 ft 480 kts 357°
2026-04-25 12:59 29.67830 -81.34152 30349 ft 479 kts 357°
2026-04-25 12:59 29.71151 -81.34347 30705 ft 477 kts 357°
2026-04-25 12:59 29.74465 -81.34543 31047 ft 477 kts 356°
2026-04-25 12:59 29.77775 -81.34739 31361 ft 476 kts 356°
2026-04-25 13:00 29.81087 -81.34935 31660 ft 476 kts 356°
2026-04-25 13:00 29.87694 -81.35328 32289 ft 475 kts 356°
2026-04-25 13:00 29.90989 -81.35523 32574 ft 475 kts 356°
2026-04-25 13:01 29.94284 -81.35718 32868 ft 474 kts 356°
2026-04-25 13:01 29.97579 -81.35914 33141 ft 474 kts 356°
2026-04-25 13:01 30.00869 -81.36110 33419 ft 473 kts 356°
2026-04-25 13:01 30.04148 -81.36305 33703 ft 472 kts 356°
2026-04-25 13:02 30.07431 -81.36500 33911 ft 473 kts 356°
2026-04-25 13:02 30.10735 -81.36698 33949 ft 476 kts 356°
2026-04-25 13:02 30.17338 -81.37091 33962 ft 473 kts 356°
2026-04-25 13:03 30.23873 -81.37481 33971 ft 469 kts 356°
2026-04-25 13:03 30.30391 -81.37871 34021 ft 470 kts 356°
2026-04-25 13:04 30.33662 -81.38067 34201 ft 470 kts 356°
2026-04-25 13:04 30.36871 -81.38259 34607 ft 465 kts 356°
2026-04-25 13:04 30.40080 -81.38451 35007 ft 460 kts 356°
2026-04-25 13:04 30.43297 -81.38644 34952 ft 466 kts 356°
2026-04-25 13:05 30.49781 -81.39034 35001 ft 467 kts 356°
2026-04-25 13:05 30.53021 -81.39228 35188 ft 466 kts 356°
2026-04-25 13:05 30.56262 -81.39423 35429 ft 465 kts 356°
2026-04-25 13:06 30.59485 -81.39617 35574 ft 465 kts 356°
2026-04-25 13:06 30.62724 -81.39812 35661 ft 466 kts 356°
2026-04-25 13:06 30.69226 -81.40204 35842 ft 469 kts 356°
2026-04-25 13:07 30.72485 -81.40401 35961 ft 469 kts 356°
2026-04-25 13:07 30.74684 -81.40533 36017 ft 469 kts 356°
2026-04-25 13:07 30.81182 -81.40926 36053 ft 474 kts 356°
2026-04-25 13:08 30.87766 -81.41325 35976 ft 472 kts 356°
2026-04-25 13:08 30.94278 -81.41718 35950 ft 467 kts 356°
2026-04-25 13:09 31.00747 -81.42111 35951 ft 464 kts 356°
2026-04-25 13:09 31.07211 -81.42504 35988 ft 467 kts 356°
2026-04-25 13:10 31.13736 -81.42901 36080 ft 471 kts 356°
2026-04-25 13:10 31.20272 -81.43280 36291 ft 471 kts 359°
2026-04-25 13:11 31.26783 -81.42297 36424 ft 475 kts 13°
2026-04-25 13:11 31.32981 -81.39563 36536 ft 479 kts 23°
2026-04-25 13:12 31.39000 -81.36197 36679 ft 480 kts 23°
2026-04-25 13:12 31.44015 -81.33404 36760 ft 481 kts 23°
2026-04-25 13:13 31.48068 -81.31182 36863 ft 480 kts 22°
2026-04-25 13:13 31.51096 -81.29532 36916 ft 481 kts 22°
2026-04-25 13:13 31.57153 -81.26236 36950 ft 480 kts 22°
2026-04-25 13:14 31.63215 -81.22927 36955 ft 480 kts 22°
2026-04-25 13:14 31.69277 -81.19613 36941 ft 481 kts 22°
2026-04-25 13:15 31.75344 -81.16293 36928 ft 481 kts 22°
2026-04-25 13:15 31.81420 -81.12964 36922 ft 482 kts 22°
2026-04-25 13:16 31.87493 -81.09629 36922 ft 482 kts 22°
2026-04-25 13:16 31.93536 -81.06306 36917 ft 482 kts 22°
2026-04-25 13:17 31.99655 -81.02937 36916 ft 483 kts 22°
2026-04-25 13:17 32.05687 -80.99584 36916 ft 483 kts 23°
2026-04-25 13:18 32.11797 -80.96159 36921 ft 483 kts 23°
2026-04-25 13:18 32.17837 -80.92769 36948 ft 483 kts 23°
2026-04-25 13:19 32.23913 -80.89359 36948 ft 484 kts 23°
2026-04-25 13:19 32.29003 -80.86498 36948 ft 484 kts 23°
2026-04-25 13:20 32.36066 -80.82524 36944 ft 484 kts 23°
2026-04-25 13:20 32.42144 -80.79097 36940 ft 484 kts 23°
2026-04-25 13:21 32.48225 -80.75664 36947 ft 484 kts 23°
2026-04-25 13:21 32.54301 -80.72228 36943 ft 484 kts 23°
2026-04-25 13:22 32.60380 -80.68785 36945 ft 484 kts 23°
2026-04-25 13:23 32.69358 -80.63281 36938 ft 487 kts 32°
2026-04-25 13:23 32.74587 -80.58135 36948 ft 491 kts 44°
2026-04-25 13:24 32.79123 -80.52056 36948 ft 492 kts 47°
2026-04-25 13:24 32.83593 -80.45872 36945 ft 493 kts 47°
2026-04-25 13:25 32.88089 -80.39712 36952 ft 493 kts 46°
2026-04-25 13:25 32.92605 -80.33568 36934 ft 493 kts 46°
2026-04-25 13:26 32.97126 -80.27422 36923 ft 494 kts 46°
2026-04-25 13:26 33.01651 -80.21262 36934 ft 494 kts 47°
2026-04-25 13:27 33.06173 -80.15086 36921 ft 494 kts 47°
2026-04-25 13:27 33.10692 -80.08905 36933 ft 494 kts 47°
2026-04-25 13:28 33.15202 -80.02726 36937 ft 494 kts 47°
2026-04-25 13:28 33.19706 -79.96543 36936 ft 493 kts 47°
2026-04-25 13:29 33.24198 -79.90366 36928 ft 492 kts 47°
2026-04-25 13:29 33.28680 -79.84194 36932 ft 491 kts 47°
2026-04-25 13:30 33.35387 -79.74936 36934 ft 490 kts 47°
2026-04-25 13:31 33.42074 -79.65686 36942 ft 490 kts 47°
2026-04-25 13:31 33.46534 -79.59503 36941 ft 491 kts 47°
2026-04-25 13:32 33.50996 -79.53304 36944 ft 491 kts 47°
2026-04-25 13:32 33.55456 -79.47098 36939 ft 492 kts 47°
2026-04-25 13:33 33.59890 -79.40917 36942 ft 492 kts 48°
2026-04-25 13:33 33.64350 -79.34689 36942 ft 493 kts 48°
2026-04-25 13:34 33.68818 -79.28441 36944 ft 493 kts 48°
2026-04-25 13:34 33.73284 -79.22188 36941 ft 493 kts 48°
2026-04-25 13:35 33.77754 -79.15917 36953 ft 494 kts 48°
2026-04-25 13:35 33.82220 -79.09643 36947 ft 494 kts 48°
2026-04-25 13:36 33.86692 -79.03346 36943 ft 495 kts 48°
2026-04-25 13:36 33.91160 -78.97044 36941 ft 495 kts 48°
2026-04-25 13:37 33.95623 -78.90737 36938 ft 495 kts 48°
2026-04-25 13:37 34.00088 -78.84418 36936 ft 495 kts 48°
2026-04-25 13:38 34.04547 -78.78096 36939 ft 495 kts 48°
2026-04-25 13:38 34.09018 -78.71743 36939 ft 495 kts 48°
2026-04-25 13:39 34.13449 -78.65439 36944 ft 495 kts 48°
2026-04-25 13:39 34.17912 -78.59074 36940 ft 495 kts 48°
2026-04-25 13:40 34.21611 -78.53794 36938 ft 495 kts 48°
2026-04-25 13:40 34.26247 -78.45906 36945 ft 498 kts 59°
2026-04-25 13:41 34.29235 -78.38336 36940 ft 499 kts 64°
2026-04-25 13:41 34.32102 -78.30668 36929 ft 500 kts 64°
2026-04-25 13:42 34.34999 -78.23015 36935 ft 500 kts 63°
2026-04-25 13:42 34.37920 -78.15367 36931 ft 501 kts 63°
2026-04-25 13:43 34.40843 -78.07713 36940 ft 501 kts 63°
2026-04-25 13:43 34.43759 -78.00052 36935 ft 501 kts 63°
2026-04-25 13:44 34.46672 -77.92375 36940 ft 501 kts 63°
2026-04-25 13:44 34.49579 -77.84697 36941 ft 501 kts 63°
2026-04-25 13:45 34.52479 -77.77019 36932 ft 501 kts 63°
2026-04-25 13:45 34.55630 -77.69513 36927 ft 498 kts 54°
2026-04-25 13:46 34.59873 -77.62934 36933 ft 494 kts 43°
2026-04-25 13:46 34.64849 -77.57205 36939 ft 493 kts 40°
2026-04-25 13:47 34.69884 -77.51544 36936 ft 493 kts 41°
2026-04-25 13:47 34.74889 -77.45849 36936 ft 493 kts 41°
2026-04-25 13:48 34.79872 -77.40117 36937 ft 494 kts 41°
2026-04-25 13:48 34.84862 -77.34354 36936 ft 494 kts 41°
2026-04-25 13:49 34.89845 -77.28591 36932 ft 495 kts 41°
2026-04-25 13:49 34.94840 -77.22808 36930 ft 495 kts 41°
2026-04-25 13:50 34.99833 -77.17016 36931 ft 495 kts 41°
2026-04-25 13:50 35.04819 -77.11223 36937 ft 495 kts 41°
2026-04-25 13:51 35.09808 -77.05416 36934 ft 496 kts 41°
2026-04-25 13:51 35.14798 -76.99598 36933 ft 496 kts 41°
2026-04-25 13:52 35.19782 -76.93777 36927 ft 495 kts 41°
2026-04-25 13:52 35.24758 -76.87953 36925 ft 495 kts 41°
2026-04-25 13:53 35.28897 -76.83103 36921 ft 496 kts 41°
2026-04-25 13:53 35.33870 -76.77262 36908 ft 496 kts 41°
2026-04-25 13:54 35.38847 -76.71409 36908 ft 496 kts 41°
2026-04-25 13:54 35.43814 -76.65556 36906 ft 496 kts 41°
2026-04-25 13:55 35.48793 -76.59679 36908 ft 496 kts 41°
2026-04-25 13:55 35.53764 -76.53798 36903 ft 496 kts 41°
2026-04-25 13:56 35.58736 -76.47908 36899 ft 497 kts 41°
2026-04-25 13:56 35.63991 -76.42459 36906 ft 492 kts 32°
2026-04-25 13:57 35.69625 -76.37675 36886 ft 492 kts 31°
2026-04-25 13:57 35.75272 -76.32903 36908 ft 492 kts 31°
2026-04-25 13:58 35.80884 -76.28092 36909 ft 493 kts 31°
2026-04-25 13:58 35.86511 -76.23229 36899 ft 493 kts 31°
2026-04-25 13:59 35.92131 -76.18361 36902 ft 494 kts 31°
2026-04-25 13:59 35.97753 -76.13486 36890 ft 494 kts 31°
2026-04-25 14:00 36.02422 -76.09432 36891 ft 494 kts 31°
2026-04-25 14:00 36.08993 -76.03716 36899 ft 494 kts 31°
2026-04-25 14:01 36.14473 -75.98940 36903 ft 494 kts 31°
2026-04-25 14:01 36.20085 -75.94040 36900 ft 494 kts 31°
2026-04-25 14:02 36.25700 -75.89129 36906 ft 494 kts 31°
2026-04-25 14:02 36.31463 -75.84697 36911 ft 490 kts 25°
2026-04-25 14:03 36.37407 -75.80563 36909 ft 490 kts 25°
2026-04-25 14:03 36.43357 -75.76419 36906 ft 490 kts 25°
2026-04-25 14:04 36.49286 -75.72241 36898 ft 490 kts 25°
2026-04-25 14:04 36.55213 -75.68035 36892 ft 490 kts 25°
2026-04-25 14:05 36.61129 -75.63827 36885 ft 490 kts 25°
2026-04-25 14:05 36.67048 -75.59611 36891 ft 490 kts 25°
2026-04-25 14:06 36.72953 -75.55399 36892 ft 489 kts 25°
2026-04-25 14:06 36.78862 -75.51178 36890 ft 489 kts 25°
2026-04-25 14:07 36.84765 -75.46953 36898 ft 489 kts 25°
2026-04-25 14:07 36.90660 -75.42726 36892 ft 489 kts 25°
2026-04-25 14:08 36.96553 -75.38493 36891 ft 488 kts 25°
2026-04-25 14:08 37.02445 -75.34253 36891 ft 488 kts 25°
2026-04-25 14:09 37.08321 -75.30016 36904 ft 488 kts 25°
2026-04-25 14:09 37.14160 -75.25799 36897 ft 487 kts 25°
2026-04-25 14:10 37.20026 -75.21555 36919 ft 487 kts 25°
2026-04-25 14:10 37.25890 -75.17305 36922 ft 487 kts 25°
2026-04-25 14:11 37.31755 -75.13045 36914 ft 487 kts 24°
2026-04-25 14:11 37.37608 -75.08787 36923 ft 486 kts 24°
2026-04-25 14:12 37.43465 -75.04518 36924 ft 486 kts 24°
2026-04-25 14:12 37.49316 -75.00246 36929 ft 486 kts 24°
2026-04-25 14:13 37.55160 -74.95970 36932 ft 486 kts 24°
2026-04-25 14:13 37.61002 -74.91689 36935 ft 486 kts 24°
2026-04-25 14:14 37.66904 -74.87574 36936 ft 483 kts 21°
2026-04-25 14:14 37.72883 -74.83741 36943 ft 482 kts 21°
2026-04-25 14:15 37.78879 -74.79920 36950 ft 482 kts 21°
2026-04-25 14:15 37.84858 -74.76069 36956 ft 482 kts 21°
2026-04-25 14:16 37.90833 -74.72190 36954 ft 482 kts 21°
2026-04-25 14:16 37.96796 -74.68307 36960 ft 482 kts 21°
2026-04-25 14:17 38.02761 -74.64418 36967 ft 482 kts 21°
2026-04-25 14:17 38.08726 -74.60523 36972 ft 482 kts 21°
2026-04-25 14:18 38.14691 -74.56620 36976 ft 482 kts 21°
2026-04-25 14:18 38.20652 -74.52714 36977 ft 482 kts 21°
2026-04-25 14:19 38.26611 -74.48800 36986 ft 482 kts 21°
2026-04-25 14:19 38.32573 -74.44879 36990 ft 482 kts 21°
2026-04-25 14:20 38.38526 -74.40956 36994 ft 482 kts 21°
2026-04-25 14:20 38.44540 -74.36984 36999 ft 482 kts 21°
2026-04-25 14:21 38.50439 -74.33081 37004 ft 482 kts 21°
2026-04-25 14:21 38.56392 -74.29136 37009 ft 482 kts 20°
2026-04-25 14:22 38.62344 -74.25183 37008 ft 481 kts 20°
2026-04-25 14:22 38.68226 -74.21264 37005 ft 472 kts 20°
2026-04-25 14:23 38.74019 -74.17402 37022 ft 470 kts 20°
2026-04-25 14:23 38.79846 -74.13518 37031 ft 473 kts 20°
2026-04-25 14:24 38.85699 -74.09604 37030 ft 474 kts 20°
2026-04-25 14:24 38.91542 -74.05685 37032 ft 474 kts 20°
2026-04-25 14:25 38.97390 -74.01757 37035 ft 474 kts 20°
2026-04-25 14:25 39.03081 -73.97381 37042 ft 481 kts 27°
2026-04-25 14:26 39.08548 -73.92414 37051 ft 481 kts 28°
2026-04-25 14:26 39.14004 -73.87418 37042 ft 481 kts 28°
2026-04-25 14:27 39.19459 -73.82462 37047 ft 480 kts 27°
2026-04-25 14:27 39.24926 -73.77514 37055 ft 479 kts 27°
2026-04-25 14:28 39.30377 -73.72574 37063 ft 479 kts 27°
2026-04-25 14:28 39.35840 -73.67612 37067 ft 480 kts 27°
2026-04-25 14:29 39.41293 -73.62647 37062 ft 480 kts 27°
2026-04-25 14:29 39.46746 -73.57672 37071 ft 480 kts 27°
2026-04-25 14:30 39.52197 -73.52688 37079 ft 480 kts 27°
2026-04-25 14:30 39.60366 -73.45203 37077 ft 479 kts 28°
2026-04-25 14:31 39.65808 -73.40203 37087 ft 479 kts 28°
2026-04-25 14:31 39.71242 -73.35201 37089 ft 478 kts 28°
2026-04-25 14:32 39.76665 -73.30201 37090 ft 478 kts 28°
2026-04-25 14:32 39.81743 -73.24485 37096 ft 489 kts 39°
2026-04-25 14:33 39.86031 -73.17521 37098 ft 497 kts 47°
2026-04-25 14:33 39.90031 -73.10180 37089 ft 496 kts 47°
2026-04-25 14:34 39.94019 -73.02855 37094 ft 495 kts 47°
2026-04-25 14:34 39.98022 -72.95578 37099 ft 494 kts 47°
2026-04-25 14:35 40.02031 -72.88313 37101 ft 493 kts 47°
2026-04-25 14:35 40.06027 -72.81059 37109 ft 492 kts 47°
2026-04-25 14:36 40.10012 -72.73802 37110 ft 491 kts 47°
2026-04-25 14:36 40.13318 -72.67767 37115 ft 491 kts 47°
2026-04-25 14:37 40.17292 -72.60497 37123 ft 491 kts 47°
2026-04-25 14:37 40.21250 -72.53238 37117 ft 491 kts 47°
2026-04-25 14:38 40.25856 -72.44769 37121 ft 490 kts 47°
2026-04-25 14:38 40.29167 -72.38667 37124 ft 490 kts 47°
2026-04-25 14:39 40.33105 -72.31395 37123 ft 489 kts 47°
2026-04-25 14:39 40.37014 -72.24161 37125 ft 488 kts 47°
2026-04-25 14:40 40.40929 -72.16897 37129 ft 488 kts 47°
2026-04-25 14:40 40.44872 -72.09566 37136 ft 488 kts 47°
2026-04-25 14:41 40.48776 -72.02246 37138 ft 492 kts 50°
2026-04-25 14:41 40.52016 -71.94212 37137 ft 503 kts 60°
2026-04-25 14:42 40.54263 -71.87151 37138 ft 505 kts 60°
2026-04-25 14:42 40.57383 -71.77223 37143 ft 506 kts 60°
2026-04-25 14:43 40.60106 -71.68696 37136 ft 506 kts 60°
2026-04-25 14:43 40.62845 -71.60168 37145 ft 506 kts 60°
2026-04-25 14:44 40.65577 -71.51637 37145 ft 506 kts 60°
2026-04-25 14:44 40.68302 -71.43093 37147 ft 506 kts 60°
2026-04-25 14:45 40.71020 -71.34538 37153 ft 506 kts 60°
2026-04-25 14:45 40.73730 -71.25981 37147 ft 506 kts 59°
2026-04-25 14:46 40.76432 -71.17425 37148 ft 505 kts 59°
2026-04-25 14:46 40.79129 -71.08860 37145 ft 505 kts 59°
2026-04-25 14:47 40.81358 -71.01748 37145 ft 505 kts 60°
2026-04-25 14:47 40.84148 -70.91488 37145 ft 509 kts 63°
2026-04-25 14:48 40.86414 -70.82631 37148 ft 509 kts 63°
2026-04-25 14:48 40.88681 -70.73786 37134 ft 508 kts 63°
2026-04-25 14:49 40.90962 -70.64949 37144 ft 508 kts 63°
2026-04-25 14:49 40.93243 -70.56114 37143 ft 507 kts 63°
2026-04-25 14:50 40.95501 -70.47341 37148 ft 507 kts 63°
2026-04-25 14:50 40.97764 -70.38508 37145 ft 507 kts 62°
2026-04-25 14:51 41.00021 -70.29662 37148 ft 507 kts 62°
2026-04-25 14:51 41.02270 -70.20815 37151 ft 507 kts 62°
2026-04-25 14:52 41.04510 -70.11970 37151 ft 506 kts 62°
2026-04-25 14:52 41.06367 -70.04616 37150 ft 506 kts 62°
2026-04-25 14:53 41.08967 -69.94279 37151 ft 506 kts 62°
2026-04-25 14:53 41.11186 -69.85421 37148 ft 506 kts 62°
2026-04-25 14:54 41.13395 -69.76570 37145 ft 506 kts 62°
2026-04-25 14:54 41.15595 -69.67718 37143 ft 506 kts 62°
2026-04-25 14:55 41.17794 -69.58844 37146 ft 506 kts 62°
2026-04-25 14:55 41.19982 -69.49974 37146 ft 506 kts 62°
2026-04-25 14:56 41.22166 -69.41091 37134 ft 506 kts 63°
2026-04-25 14:56 41.24444 -69.32299 37132 ft 496 kts 55°
2026-04-25 14:57 41.26050 -69.28312 37136 ft 482 kts 46°
2026-04-25 14:57 41.28041 -69.24812 37144 ft 469 kts 37°
2026-04-25 14:57 41.30358 -69.21859 37141 ft 456 kts 28°
2026-04-25 14:57 41.32941 -69.19513 37143 ft 444 kts 19°
2026-04-25 14:58 41.35704 -69.17823 37137 ft 433 kts 10°
2026-04-25 14:58 41.38586 -69.16813 37141 ft 423 kts
2026-04-25 14:58 41.44406 -69.16073 37145 ft 419 kts 356°
2026-04-25 14:59 41.50231 -69.15751 37140 ft 419 kts 356°
2026-04-25 14:59 41.56060 -69.15491 37138 ft 419 kts 355°
2026-04-25 15:00 41.61890 -69.15254 37138 ft 419 kts 355°
2026-04-25 15:00 41.67718 -69.14457 37122 ft 429 kts
2026-04-25 15:01 41.73243 -69.11060 37137 ft 450 kts 26°
2026-04-25 15:01 41.75697 -69.08392 37128 ft 462 kts 35°
2026-04-25 15:01 41.77860 -69.05128 37131 ft 474 kts 44°
2026-04-25 15:02 41.79652 -69.01364 37132 ft 486 kts 53°
2026-04-25 15:02 41.81028 -68.97165 37131 ft 498 kts 62°
2026-04-25 15:02 41.81930 -68.92691 37136 ft 510 kts 71°
2026-04-25 15:02 41.82350 -68.87923 37134 ft 521 kts 80°
2026-04-25 15:03 41.81615 -68.78045 37132 ft 540 kts 98°
2026-04-25 15:03 41.78798 -68.68588 37127 ft 555 kts 116°
2026-04-25 15:04 41.74151 -68.60356 37136 ft 562 kts 131°
2026-04-25 15:04 41.68601 -68.52957 37120 ft 564 kts 135°
2026-04-25 15:05 41.62908 -68.45707 37121 ft 566 kts 135°
2026-04-25 15:06 41.54321 -68.34857 37121 ft 567 kts 135°
2026-04-25 15:06 41.48615 -68.27593 37096 ft 564 kts 129°
2026-04-25 15:06 41.46418 -68.23339 37115 ft 552 kts 109°
2026-04-25 15:07 41.45287 -68.18562 37115 ft 534 kts 89°
2026-04-25 15:07 41.45285 -68.13731 37118 ft 511 kts 70°
2026-04-25 15:07 41.46357 -68.09363 37121 ft 485 kts 50°
2026-04-25 15:07 41.48225 -68.05742 37125 ft 469 kts 40°
2026-04-25 15:08 41.50380 -68.02500 37120 ft 466 kts 37°
2026-04-25 15:08 41.54796 -67.96098 37114 ft 475 kts 41°
2026-04-25 15:08 41.56747 -67.92468 37107 ft 487 kts 49°
2026-04-25 15:09 41.58349 -67.88423 37109 ft 499 kts 57°
2026-04-25 15:09 41.61695 -67.75011 37107 ft 512 kts 66°
2026-04-25 15:10 41.63612 -67.65840 37104 ft 512 kts 65°
2026-04-25 15:11 41.66644 -67.52166 37101 ft 511 kts 64°
2026-04-25 15:11 41.68704 -67.43076 37097 ft 510 kts 65°
2026-04-25 15:12 41.71768 -67.29438 37103 ft 510 kts 65°
2026-04-25 15:12 41.73110 -67.23420 37091 ft 510 kts 65°
2026-04-25 15:13 41.76825 -67.06688 37087 ft 510 kts 65°
2026-04-25 15:14 41.78945 -66.97659 37083 ft 504 kts 60°
2026-04-25 15:14 41.81591 -66.88986 37086 ft 502 kts 59°
2026-04-25 15:15 41.84273 -66.80416 37081 ft 502 kts 59°
2026-04-25 15:15 41.86946 -66.71763 37073 ft 503 kts 60°
2026-04-25 15:16 41.89594 -66.63078 37070 ft 503 kts 60°
2026-04-25 15:16 41.93541 -66.50025 37069 ft 503 kts 60°
2026-04-25 15:17 41.97475 -66.36962 37056 ft 503 kts 61°
2026-04-25 15:18 42.00086 -66.28256 37054 ft 502 kts 61°
2026-04-25 15:18 42.03991 -66.15189 37051 ft 501 kts 62°
2026-04-25 15:19 42.05706 -66.09426 37049 ft 501 kts 62°
2026-04-25 15:19 42.09163 -65.97775 37046 ft 501 kts 62°
2026-04-25 15:20 42.11734 -65.89076 37037 ft 500 kts 62°
2026-04-25 15:20 42.14299 -65.80368 37033 ft 500 kts 62°
2026-04-25 15:21 42.16854 -65.71664 37034 ft 499 kts 62°
2026-04-25 15:21 42.19401 -65.62956 37031 ft 499 kts 62°
2026-04-25 15:22 42.21923 -65.54307 37024 ft 499 kts 63°
2026-04-25 15:22 42.24455 -65.45593 37022 ft 499 kts 63°
2026-04-25 15:23 42.26977 -65.36883 37018 ft 498 kts 63°
2026-04-25 15:23 42.29503 -65.28137 37022 ft 502 kts 63°
2026-04-25 15:24 42.32042 -65.19313 37017 ft 505 kts 63°
2026-04-25 15:24 42.33745 -65.13376 37015 ft 507 kts 63°
2026-04-25 15:25 42.37141 -65.01490 37017 ft 511 kts 64°
2026-04-25 15:25 42.39697 -64.92506 37001 ft 513 kts 64°
2026-04-25 15:26 42.41839 -64.84952 37000 ft 514 kts 64°
2026-04-25 15:26 42.44395 -64.75909 36998 ft 515 kts 64°
2026-04-25 15:27 42.46933 -64.66898 36990 ft 516 kts 64°
2026-04-25 15:28 42.50753 -64.53274 36984 ft 516 kts 65°
2026-04-25 15:28 42.53290 -64.44186 36982 ft 515 kts 65°
2026-04-25 15:29 42.55820 -64.35091 36983 ft 515 kts 65°
2026-04-25 15:29 42.58337 -64.26006 36966 ft 514 kts 65°
2026-04-25 15:30 42.60437 -64.18403 36986 ft 513 kts 65°
2026-04-25 15:30 42.63338 -64.07862 36974 ft 512 kts 65°
2026-04-25 15:31 42.65822 -63.98798 36964 ft 512 kts 65°
2026-04-25 15:31 42.68298 -63.89733 36964 ft 511 kts 66°
2026-04-25 15:32 42.70761 -63.80680 36961 ft 511 kts 66°
2026-04-25 15:32 42.73220 -63.71610 36960 ft 511 kts 66°
2026-04-25 15:33 42.76889 -63.58014 36949 ft 510 kts 66°
2026-04-25 15:33 42.79327 -63.48934 36943 ft 510 kts 66°
2026-04-25 15:34 42.81753 -63.39869 36937 ft 510 kts 66°
2026-04-25 15:34 42.83764 -63.32328 36935 ft 510 kts 66°
2026-04-25 15:35 42.87786 -63.17172 36928 ft 509 kts 66°
2026-04-25 15:36 42.91365 -63.03609 36923 ft 509 kts 66°
2026-04-25 15:36 42.93752 -62.94517 36914 ft 509 kts 67°
2026-04-25 15:37 42.96133 -62.85418 36909 ft 509 kts 67°
2026-04-25 15:37 42.98504 -62.76318 36895 ft 509 kts 67°
2026-04-25 15:38 43.00869 -62.67210 36896 ft 509 kts 67°
2026-04-25 15:38 43.03227 -62.58091 36895 ft 509 kts 67°
2026-04-25 15:39 43.05578 -62.48966 36892 ft 509 kts 67°
2026-04-25 15:39 43.07921 -62.39837 36884 ft 509 kts 67°
2026-04-25 15:40 43.09866 -62.32230 36884 ft 509 kts 67°
2026-04-25 15:40 43.12588 -62.21546 36880 ft 509 kts 67°
2026-04-25 15:41 43.14914 -62.12376 36873 ft 509 kts 68°
2026-04-25 15:41 43.17231 -62.03206 36871 ft 509 kts 68°
2026-04-25 15:42 43.19540 -61.94033 36863 ft 509 kts 68°
2026-04-25 15:42 43.21840 -61.84860 36856 ft 509 kts 68°
2026-04-25 15:43 43.24131 -61.75683 36851 ft 509 kts 68°
2026-04-25 15:43 43.26416 -61.66495 36840 ft 508 kts 68°
2026-04-25 15:44 43.28690 -61.57316 36839 ft 508 kts 68°
2026-04-25 15:44 43.30957 -61.48131 36836 ft 508 kts 68°
2026-04-25 15:45 43.33215 -61.38941 36828 ft 508 kts 68°
2026-04-25 15:45 43.35087 -61.31297 36827 ft 508 kts 68°
2026-04-25 15:46 43.37713 -61.20530 36818 ft 508 kts 68°
2026-04-25 15:46 43.39937 -61.11374 36814 ft 508 kts 68°
2026-04-25 15:47 43.42182 -61.02092 36808 ft 509 kts 68°
2026-04-25 15:47 43.44408 -60.92848 36803 ft 509 kts 69°
2026-04-25 15:48 43.46612 -60.83660 36800 ft 509 kts 69°
2026-04-25 15:48 43.48840 -60.74335 36793 ft 509 kts 69°
2026-04-25 15:49 43.51046 -60.65060 36793 ft 510 kts 69°
2026-04-25 15:49 43.53229 -60.55844 36790 ft 510 kts 69°
2026-04-25 15:50 43.55422 -60.46554 36786 ft 510 kts 69°
2026-04-25 15:50 43.57605 -60.37262 36775 ft 510 kts 69°
2026-04-25 15:51 43.59427 -60.29474 36774 ft 509 kts 69°
2026-04-25 15:51 43.61945 -60.18673 36766 ft 509 kts 69°
2026-04-25 15:52 43.64104 -60.09371 36763 ft 508 kts 69°
2026-04-25 15:52 43.66253 -60.00071 36753 ft 508 kts 69°
2026-04-25 15:53 43.68392 -59.90772 36757 ft 508 kts 69°
2026-04-25 15:53 43.70523 -59.81469 36754 ft 508 kts 69°
2026-04-25 15:54 43.72644 -59.72170 36749 ft 507 kts 69°
2026-04-25 15:54 43.74760 -59.62861 36731 ft 507 kts 70°
2026-04-25 15:55 43.76865 -59.53554 36725 ft 507 kts 70°
2026-04-25 15:55 43.78962 -59.44243 36722 ft 507 kts 70°
2026-04-25 15:56 43.81051 -59.34926 36720 ft 507 kts 70°
2026-04-25 15:56 43.83133 -59.25600 36714 ft 507 kts 70°
2026-04-25 15:57 43.85208 -59.16268 36708 ft 507 kts 70°
2026-04-25 15:57 43.87274 -59.06933 36704 ft 507 kts 70°
2026-04-25 15:58 43.89332 -58.97597 36699 ft 507 kts 70°
2026-04-25 15:58 43.91386 -58.88240 36692 ft 507 kts 70°
2026-04-25 15:59 43.93433 -58.78865 36689 ft 507 kts 70°
2026-04-25 15:59 43.95471 -58.69494 36686 ft 508 kts 70°
2026-04-25 16:00 43.96831 -58.63215 36680 ft 508 kts 70°
2026-04-25 16:00 43.99530 -58.50707 36673 ft 508 kts 70°
2026-04-25 16:01 44.01546 -58.41309 36672 ft 508 kts 70°
2026-04-25 16:01 44.03555 -58.31901 36660 ft 508 kts 71°
2026-04-25 16:02 44.05558 -58.22480 36661 ft 508 kts 71°
2026-04-25 16:02 44.07556 -58.13046 36656 ft 509 kts 71°
2026-04-25 16:03 44.09534 -58.03663 36648 ft 509 kts 71°
2026-04-25 16:03 44.11515 -57.94217 36640 ft 509 kts 71°
2026-04-25 16:04 44.13494 -57.84740 36639 ft 510 kts 71°
2026-04-25 16:04 44.15463 -57.75262 36870 ft 510 kts 71°
2026-04-25 16:05 44.16446 -57.70518 36625 ft 510 kts 71°
2026-04-25 16:05 44.17427 -57.65772 36633 ft 510 kts 71°
2026-04-25 16:06 44.20364 -57.51486 36627 ft 512 kts 71°
2026-04-25 16:06 44.22317 -57.41939 36616 ft 513 kts 71°
2026-04-25 16:07 44.24265 -57.32367 36596 ft 513 kts 72°
2026-04-25 16:07 44.26206 -57.22777 36611 ft 513 kts 72°
2026-04-25 16:08 44.28138 -57.13187 36599 ft 513 kts 72°
2026-04-25 16:08 44.30062 -57.03596 36596 ft 513 kts 72°
2026-04-25 16:09 44.31979 -56.93996 36587 ft 514 kts 72°
2026-04-25 16:09 44.33887 -56.84386 36581 ft 513 kts 72°
2026-04-25 16:10 44.35785 -56.74785 36577 ft 513 kts 72°
2026-04-25 16:10 44.37676 -56.65174 36576 ft 513 kts 72°
2026-04-25 16:11 44.39557 -56.55558 36568 ft 513 kts 72°
2026-04-25 16:11 44.41113 -56.47569 36562 ft 513 kts 72°
2026-04-25 16:12 44.43282 -56.36381 36557 ft 512 kts 72°
2026-04-25 16:12 44.44839 -56.28316 36556 ft 512 kts 72°
2026-04-25 16:13 44.46687 -56.18693 36544 ft 513 kts 72°
2026-04-25 16:13 44.48531 -56.09041 36537 ft 513 kts 73°
2026-04-25 16:14 44.49881 -55.99208 36545 ft 515 kts 79°
2026-04-25 16:14 44.50931 -55.89274 36528 ft 516 kts 79°
2026-04-25 16:15 44.51975 -55.79326 36525 ft 516 kts 79°
2026-04-25 16:15 44.53041 -55.69376 36525 ft 516 kts 79°
2026-04-25 16:16 44.54109 -55.59486 36512 ft 517 kts 79°
2026-04-25 16:16 44.55185 -55.49450 36508 ft 517 kts 79°
2026-04-25 16:17 44.56238 -55.39528 36504 ft 518 kts 79°
2026-04-25 16:17 44.57288 -55.29533 36498 ft 518 kts 79°
2026-04-25 16:18 44.58330 -55.19523 36497 ft 519 kts 80°
2026-04-25 16:18 44.59365 -55.09498 36487 ft 520 kts 80°
2026-04-25 16:19 44.60395 -54.99448 36489 ft 520 kts 80°
2026-04-25 16:19 44.61415 -54.89389 36474 ft 522 kts 80°
2026-04-25 16:20 44.62933 -54.74249 36468 ft 522 kts 81°
2026-04-25 16:21 44.64432 -54.59090 36464 ft 523 kts 81°
2026-04-25 16:21 44.65420 -54.48973 36450 ft 523 kts 81°
2026-04-25 16:22 44.66402 -54.38837 36441 ft 524 kts 81°
2026-04-25 16:22 44.67375 -54.28696 36441 ft 523 kts 81°
2026-04-25 16:23 44.68338 -54.18561 36437 ft 523 kts 82°
2026-04-25 16:23 44.69285 -54.08498 36426 ft 523 kts 82°
2026-04-25 16:24 44.70229 -53.98366 36423 ft 523 kts 82°
2026-04-25 16:24 44.71164 -53.88235 36414 ft 523 kts 82°
2026-04-25 16:25 44.72090 -53.78095 36413 ft 523 kts 82°
2026-04-25 16:25 44.73008 -53.67950 36406 ft 523 kts 82°
2026-04-25 16:26 44.73917 -53.57796 36396 ft 524 kts 82°
2026-04-25 16:26 44.74817 -53.47632 36383 ft 523 kts 82°
2026-04-25 16:27 44.75709 -53.37473 36385 ft 523 kts 83°
2026-04-25 16:27 44.76589 -53.27330 36379 ft 523 kts 83°
2026-04-25 16:28 44.77461 -53.17171 36382 ft 522 kts 83°
2026-04-25 16:28 44.78324 -53.07023 36371 ft 522 kts 83°
2026-04-25 16:29 44.79177 -52.96876 36368 ft 522 kts 83°
2026-04-25 16:29 44.80020 -52.86733 36364 ft 522 kts 83°
2026-04-25 16:30 44.80854 -52.76585 36361 ft 521 kts 84°
2026-04-25 16:30 44.81679 -52.66445 36356 ft 521 kts 84°
2026-04-25 16:31 44.82496 -52.56293 36352 ft 521 kts 84°
2026-04-25 16:31 44.83302 -52.46151 36346 ft 521 kts 84°
2026-04-25 16:32 44.84099 -52.36009 36342 ft 521 kts 84°
2026-04-25 16:32 44.84888 -52.25857 36337 ft 521 kts 85°
2026-04-25 16:33 44.85668 -52.15701 36331 ft 521 kts 85°
2026-04-25 16:33 44.86439 -52.05535 36328 ft 522 kts 85°
2026-04-25 16:34 44.87199 -51.95406 36312 ft 515 kts 85°
2026-04-25 16:34 44.87943 -51.85386 36312 ft 512 kts 85°
2026-04-25 16:35 44.88672 -51.75412 36312 ft 511 kts 85°
2026-04-25 16:35 44.89385 -51.65477 36305 ft 507 kts 86°
2026-04-25 16:36 44.90086 -51.55612 36302 ft 504 kts 86°
2026-04-25 16:36 44.90774 -51.45807 36299 ft 501 kts 86°
2026-04-25 16:37 44.91445 -51.36116 36300 ft 499 kts 86°
2026-04-25 16:37 44.92113 -51.26350 36301 ft 501 kts 87°
2026-04-25 16:38 44.92774 -51.16558 36292 ft 501 kts 87°
2026-04-25 16:38 44.93428 -51.06772 36292 ft 501 kts 87°
2026-04-25 16:39 44.94072 -50.96989 36290 ft 501 kts 87°
2026-04-25 16:39 44.94714 -50.87121 36285 ft 501 kts 88°
2026-04-25 16:40 44.95336 -50.77419 36282 ft 499 kts 88°
2026-04-25 16:40 44.95958 -50.67566 36289 ft 502 kts 88°
2026-04-25 16:41 44.96568 -50.57813 36284 ft 502 kts 88°
2026-04-25 16:41 44.97469 -50.43104 36274 ft 500 kts 89°
2026-04-25 16:42 44.98059 -50.33309 36285 ft 502 kts 89°
2026-04-25 16:42 44.98639 -50.23547 36274 ft 495 kts 89°
2026-04-25 16:43 44.99206 -50.13818 36284 ft 500 kts 89°
2026-04-25 16:43 44.99809 -50.04028 36264 ft 499 kts 86°
2026-04-25 16:44 45.01290 -49.94450 36269 ft 503 kts 75°
2026-04-25 16:44 45.03641 -49.85077 36263 ft 507 kts 73°
2026-04-25 16:45 45.06051 -49.75713 36266 ft 506 kts 73°
2026-04-25 16:45 45.08421 -49.66335 36271 ft 507 kts 74°
2026-04-25 16:46 45.10749 -49.56969 36272 ft 506 kts 74°
2026-04-25 16:46 45.12311 -49.50636 36273 ft 507 kts 75°
2026-04-25 16:47 45.15399 -49.38076 36279 ft 507 kts 74°
2026-04-25 16:47 45.17709 -49.28640 36275 ft 508 kts 75°
2026-04-25 16:48 45.20004 -49.19231 36275 ft 505 kts 75°
2026-04-25 16:48 45.22299 -49.09773 36274 ft 509 kts 75°
2026-04-25 16:49 45.24598 -49.00265 36279 ft 510 kts 75°
2026-04-25 16:49 45.26893 -48.90737 36273 ft 510 kts 75°
2026-04-25 16:50 45.29182 -48.81190 36285 ft 512 kts 75°
2026-04-25 16:50 45.31481 -48.71555 36280 ft 517 kts 75°
2026-04-25 16:51 45.33767 -48.61936 36292 ft 518 kts 75°
2026-04-25 16:51 45.35306 -48.55441 36288 ft 519 kts 75°
2026-04-25 16:52 45.38364 -48.42481 36290 ft 519 kts 75°
2026-04-25 16:52 45.40650 -48.32736 36296 ft 519 kts 76°
2026-04-25 16:53 45.44055 -48.18141 36299 ft 517 kts 76°
2026-04-25 16:54 45.46307 -48.08434 36301 ft 515 kts 76°
2026-04-25 16:54 45.48545 -47.98746 36316 ft 514 kts 76°
2026-04-25 16:55 45.50770 -47.89066 36314 ft 514 kts 76°
2026-04-25 16:55 45.52984 -47.79395 36320 ft 513 kts 76°
2026-04-25 16:56 45.55192 -47.69704 36324 ft 513 kts 76°
2026-04-25 16:56 45.57392 -47.60006 36332 ft 514 kts 76°
2026-04-25 16:57 45.59583 -47.50302 36332 ft 514 kts 76°
2026-04-25 16:57 45.61769 -47.40577 36343 ft 514 kts 76°
2026-04-25 16:58 45.63946 -47.30850 36350 ft 514 kts 77°
2026-04-25 16:58 45.65751 -47.22750 36360 ft 515 kts 77°
2026-04-25 16:59 45.67916 -47.12997 36357 ft 515 kts 77°
2026-04-25 16:59 45.70074 -47.03225 36371 ft 515 kts 77°
2026-04-25 17:00 45.72224 -46.93445 36366 ft 515 kts 77°
2026-04-25 17:00 45.74364 -46.83668 36376 ft 515 kts 77°
2026-04-25 17:01 45.76497 -46.73877 36379 ft 515 kts 77°
2026-04-25 17:01 45.78622 -46.64076 36387 ft 515 kts 77°
2026-04-25 17:02 45.80736 -46.54279 36391 ft 515 kts 77°
2026-04-25 17:02 45.82842 -46.44475 36401 ft 515 kts 77°
2026-04-25 17:03 45.84940 -46.34656 36409 ft 515 kts 77°
2026-04-25 17:03 45.87026 -46.24849 36411 ft 514 kts 77°
2026-04-25 17:04 45.89108 -46.15020 36418 ft 514 kts 77°
2026-04-25 17:04 45.91165 -46.05256 36426 ft 514 kts 77°
2026-04-25 17:05 45.93228 -45.95418 36416 ft 514 kts 77°
2026-04-25 17:05 45.96309 -45.80632 36442 ft 516 kts 77°
2026-04-25 17:06 45.98357 -45.70747 36447 ft 517 kts 77°
2026-04-25 17:06 46.00402 -45.60822 36455 ft 518 kts 77°
2026-04-25 17:07 46.02440 -45.50889 36454 ft 518 kts 77°
2026-04-25 17:07 46.04472 -45.40935 36465 ft 519 kts 77°
2026-04-25 17:08 46.06495 -45.30974 36457 ft 519 kts 77°
2026-04-25 17:08 46.08513 -45.20987 36470 ft 519 kts 77°
2026-04-25 17:09 46.10520 -45.11002 36469 ft 519 kts 77°
2026-04-25 17:09 46.12522 -45.00998 36481 ft 519 kts 77°
2026-04-25 17:10 46.14516 -44.90978 36477 ft 520 kts 77°
2026-04-25 17:10 46.16500 -44.80956 36484 ft 520 kts 77°
2026-04-25 17:11 46.18477 -44.70921 36485 ft 520 kts 77°
2026-04-25 17:11 46.20446 -44.60873 36496 ft 520 kts 77°
2026-04-25 17:12 46.22406 -44.50817 36489 ft 521 kts 77°
2026-04-25 17:12 46.24359 -44.40746 36502 ft 521 kts 77°
2026-04-25 17:13 46.25976 -44.32368 36499 ft 521 kts 77°
2026-04-25 17:13 46.28240 -44.20575 36498 ft 521 kts 77°
2026-04-25 17:14 46.30153 -44.10554 36500 ft 521 kts 77°
2026-04-25 17:14 46.32072 -44.00448 36505 ft 521 kts 77°
2026-04-25 17:15 46.33979 -43.90351 36510 ft 521 kts 77°
2026-04-25 17:15 46.35878 -43.80242 36517 ft 520 kts 77°
2026-04-25 17:16 46.37769 -43.70122 36505 ft 521 kts 77°
2026-04-25 17:16 46.39651 -43.59991 36523 ft 521 kts 77°
2026-04-25 17:17 46.41526 -43.49848 36514 ft 521 kts 77°
2026-04-25 17:17 46.43391 -43.39702 36528 ft 521 kts 77°
2026-04-25 17:18 46.45249 -43.29536 36521 ft 521 kts 77°
2026-04-25 17:18 46.47098 -43.19365 36523 ft 521 kts 77°
2026-04-25 17:19 46.48937 -43.09194 36529 ft 521 kts 77°
2026-04-25 17:19 46.50768 -42.99012 36534 ft 521 kts 78°
2026-04-25 17:20 46.52588 -42.88828 36527 ft 521 kts 78°
2026-04-25 17:20 46.54399 -42.78643 36533 ft 521 kts 78°
2026-04-25 17:21 46.56200 -42.68449 36531 ft 521 kts 78°
2026-04-25 17:21 46.57991 -42.58260 36542 ft 520 kts 78°
2026-04-25 17:22 46.59472 -42.49791 36537 ft 520 kts 78°
2026-04-25 17:22 46.61541 -42.37886 36546 ft 519 kts 78°
2026-04-25 17:23 46.63301 -42.27700 36541 ft 519 kts 78°
2026-04-25 17:23 46.65051 -42.17510 36542 ft 519 kts 78°
2026-04-25 17:24 46.66789 -42.07328 36553 ft 518 kts 78°
2026-04-25 17:24 46.68519 -41.97136 36554 ft 518 kts 78°
2026-04-25 17:25 46.70240 -41.86935 36552 ft 519 kts 78°
2026-04-25 17:25 46.71955 -41.76714 36556 ft 519 kts 78°
2026-04-25 17:26 46.73659 -41.66499 36557 ft 519 kts 78°
2026-04-25 17:26 46.75357 -41.56252 36563 ft 520 kts 78°
2026-04-25 17:27 46.77046 -41.46000 36567 ft 520 kts 78°
2026-04-25 17:27 46.78163 -41.39186 36566 ft 521 kts 78°
2026-04-25 17:28 46.80408 -41.25408 36580 ft 522 kts 78°
2026-04-25 17:28 46.82078 -41.15088 36577 ft 522 kts 79°
2026-04-25 17:29 46.83739 -41.04758 36570 ft 522 kts 79°
2026-04-25 17:29 46.85389 -40.94432 36593 ft 522 kts 79°
2026-04-25 17:30 46.87028 -40.84109 36592 ft 522 kts 79°
2026-04-25 17:30 46.88658 -40.73775 36590 ft 522 kts 79°
2026-04-25 17:31 46.90280 -40.63432 36591 ft 522 kts 79°
2026-04-25 17:31 46.91891 -40.53091 36592 ft 522 kts 79°
2026-04-25 17:32 46.93495 -40.42727 36608 ft 523 kts 79°
2026-04-25 17:32 46.95093 -40.32334 36610 ft 523 kts 79°
2026-04-25 17:33 46.96683 -40.21934 36587 ft 524 kts 80°
2026-04-25 17:33 46.98264 -40.11522 36608 ft 524 kts 80°
2026-04-25 17:34 46.99800 -40.01152 36636 ft 524 kts 85°
2026-04-25 17:34 47.00530 -39.90561 36625 ft 523 kts 92°
2026-04-25 17:35 47.00915 -39.79866 36618 ft 528 kts 93°
2026-04-25 17:35 47.01305 -39.69098 36621 ft 531 kts 92°
2026-04-25 17:36 47.01729 -39.58277 36629 ft 533 kts 92°
2026-04-25 17:36 47.02162 -39.47427 36631 ft 533 kts 92°
2026-04-25 17:37 47.02586 -39.36586 36615 ft 533 kts 92°
2026-04-25 17:37 47.02996 -39.25759 36630 ft 531 kts 92°
2026-04-25 17:38 47.03262 -39.18536 36630 ft 530 kts 92°
2026-04-25 17:38 47.03776 -39.04178 36631 ft 529 kts 92°
2026-04-25 17:39 47.04150 -38.93406 36634 ft 529 kts 92°
2026-04-25 17:39 47.04514 -38.82634 36638 ft 529 kts 92°
2026-04-25 17:40 47.04868 -38.71863 36638 ft 529 kts 92°
2026-04-25 17:40 47.05212 -38.61089 36650 ft 529 kts 92°
2026-04-25 17:41 47.05546 -38.50314 36642 ft 530 kts 92°
2026-04-25 17:41 47.05871 -38.39515 36643 ft 529 kts 92°
2026-04-25 17:42 47.06185 -38.28756 36645 ft 528 kts 92°
2026-04-25 17:42 47.06489 -38.18001 36646 ft 527 kts 92°
2026-04-25 17:43 47.06781 -38.07274 36652 ft 526 kts 92°
2026-04-25 17:43 47.07015 -37.98372 36656 ft 525 kts 92°
2026-04-25 17:44 47.07288 -37.87667 36654 ft 525 kts 92°
2026-04-25 17:44 47.07593 -37.75231 36660 ft 525 kts 92°
2026-04-25 17:45 47.07762 -37.68079 36658 ft 525 kts 93°
2026-04-25 17:45 47.08047 -37.55576 36669 ft 525 kts 93°
2026-04-25 17:46 47.08281 -37.44872 36676 ft 525 kts 93°
2026-04-25 17:46 47.08504 -37.34175 36692 ft 525 kts 93°
2026-04-25 17:47 47.08717 -37.23462 36687 ft 525 kts 93°
2026-04-25 17:47 47.08919 -37.12819 36691 ft 525 kts 93°
2026-04-25 17:48 47.09206 -36.96773 36692 ft 524 kts 93°
2026-04-25 17:49 47.09384 -36.86086 36693 ft 523 kts 93°
2026-04-25 17:49 47.09552 -36.75421 36701 ft 523 kts 94°
2026-04-25 17:50 47.09710 -36.64771 36707 ft 522 kts 94°
2026-04-25 17:50 47.09857 -36.54125 36713 ft 521 kts 94°
2026-04-25 17:51 47.09995 -36.43489 36723 ft 521 kts 94°
2026-04-25 17:51 47.10123 -36.32849 36728 ft 521 kts 94°
2026-04-25 17:52 47.10240 -36.22216 36737 ft 521 kts 94°
2026-04-25 17:52 47.10349 -36.11584 36743 ft 521 kts 94°
2026-04-25 17:53 47.10447 -36.00928 36738 ft 521 kts 94°
2026-04-25 17:53 47.10536 -35.90280 36748 ft 522 kts 94°
2026-04-25 17:54 47.10615 -35.79635 36754 ft 522 kts 94°
2026-04-25 17:54 47.10684 -35.68985 36758 ft 522 kts 94°
2026-04-25 17:55 47.10743 -35.58344 36761 ft 521 kts 94°
2026-04-25 17:55 47.10792 -35.47709 36769 ft 521 kts 94°
2026-04-25 17:56 47.10831 -35.37074 36774 ft 521 kts 94°
2026-04-25 17:56 47.10860 -35.26508 36782 ft 521 kts 94°
2026-04-25 17:57 47.10880 -35.15879 36785 ft 521 kts 94°
2026-04-25 17:57 47.10889 -35.05235 36800 ft 522 kts 94°
2026-04-25 17:58 47.10889 -34.94576 36795 ft 522 kts 94°
2026-04-25 17:58 47.10879 -34.83914 36807 ft 522 kts 94°
2026-04-25 17:59 47.10860 -34.73259 36811 ft 522 kts 94°
2026-04-25 17:59 47.10830 -34.62597 36821 ft 522 kts 94°
2026-04-25 18:00 47.10790 -34.51949 36828 ft 522 kts 94°
2026-04-25 18:00 47.10741 -34.41296 36836 ft 522 kts 94°
2026-04-25 18:01 47.10682 -34.30694 36838 ft 522 kts 94°
2026-04-25 18:01 47.10613 -34.20000 36845 ft 521 kts 94°
2026-04-25 18:02 47.10534 -34.09367 36851 ft 521 kts 94°
2026-04-25 18:02 47.10445 -33.98739 36857 ft 520 kts 94°
2026-04-25 18:03 47.10347 -33.88123 36864 ft 520 kts 94°
2026-04-25 18:03 47.10238 -33.77506 36868 ft 520 kts 94°
2026-04-25 18:04 47.10120 -33.66913 36875 ft 519 kts 95°
2026-04-25 18:04 47.09993 -33.56337 36882 ft 519 kts 95°
2026-04-25 18:05 47.09855 -33.45736 36884 ft 518 kts 95°
2026-04-25 18:05 47.09709 -33.35172 36897 ft 518 kts 95°
2026-04-25 18:06 47.09552 -33.24606 36907 ft 518 kts 95°
2026-04-25 18:06 47.09386 -33.14050 36905 ft 517 kts 95°
2026-04-25 18:07 47.09213 -33.03603 36909 ft 517 kts 95°
2026-04-25 18:07 47.09029 -32.93151 36916 ft 516 kts 95°
2026-04-25 18:08 47.08847 -32.83263 36926 ft 515 kts 95°
2026-04-25 18:08 47.08642 -32.72673 36933 ft 515 kts 95°
2026-04-25 18:09 47.08430 -32.62189 36934 ft 514 kts 95°
2026-04-25 18:09 47.08206 -32.51642 36924 ft 514 kts 95°
2026-04-25 18:10 47.07975 -32.41171 36935 ft 513 kts 95°
2026-04-25 18:10 47.07736 -32.30769 36952 ft 513 kts 95°
2026-04-25 18:11 47.07487 -32.20348 36958 ft 513 kts 95°
2026-04-25 18:11 47.07230 -32.10021 36950 ft 513 kts 95°
2026-04-25 18:12 47.07081 -32.04188 36954 ft 514 kts 95°
2026-04-25 18:12 47.06808 -31.93753 36966 ft 513 kts 95°
2026-04-25 18:13 47.06523 -31.83270 36966 ft 513 kts 95°
2026-04-25 18:13 47.06230 -31.72808 36974 ft 513 kts 95°
2026-04-25 18:14 47.05773 -31.57135 36978 ft 513 kts 96°
2026-04-25 18:14 47.05455 -31.46676 36980 ft 513 kts 96°
2026-04-25 18:15 47.05130 -31.36274 36991 ft 513 kts 96°
2026-04-25 18:15 47.04793 -31.25786 36998 ft 512 kts 96°
2026-04-25 18:16 47.04448 -31.15362 37004 ft 512 kts 96°
2026-04-25 18:17 47.04371 -31.13050 37003 ft 512 kts 96°
2026-04-25 18:17 47.04015 -31.02663 37009 ft 512 kts 96°
2026-04-25 18:18 47.03649 -30.92223 37017 ft 512 kts 96°
2026-04-25 18:18 47.03271 -30.81716 37020 ft 513 kts 96°
2026-04-25 18:19 47.02885 -30.71277 37024 ft 513 kts 96°
2026-04-25 18:19 47.02491 -30.60847 37028 ft 513 kts 96°
2026-04-25 18:20 47.02090 -30.50505 37028 ft 514 kts 96°
2026-04-25 18:20 47.01674 -30.40022 37034 ft 514 kts 96°
2026-04-25 18:21 47.01250 -30.29563 37038 ft 514 kts 96°
2026-04-25 18:21 47.00816 -30.19107 37039 ft 514 kts 96°
2026-04-25 18:22 47.00374 -30.08644 37044 ft 515 kts 96°
2026-04-25 18:22 47.00029 -29.98284 37062 ft 516 kts 91°
2026-04-25 18:23 47.00423 -29.87748 37055 ft 517 kts 88°
2026-04-25 18:23 47.00928 -29.77233 37043 ft 517 kts 88°
2026-04-25 18:24 47.01399 -29.66723 37058 ft 518 kts 88°
2026-04-25 18:24 47.01832 -29.56185 37057 ft 518 kts 88°
2026-04-25 18:25 47.02243 -29.45648 37063 ft 518 kts 88°
2026-04-25 18:25 47.02644 -29.35105 37062 ft 518 kts 88°
2026-04-25 18:26 47.03039 -29.24541 37066 ft 518 kts 88°
2026-04-25 18:26 47.03296 -29.17552 37063 ft 518 kts 88°
2026-04-25 18:27 47.03662 -29.07377 37067 ft 518 kts 88°
2026-04-25 18:27 47.04036 -28.96733 37069 ft 518 kts 88°
2026-04-25 18:28 47.04394 -28.86233 37078 ft 518 kts 88°
2026-04-25 18:28 47.04746 -28.75634 37082 ft 518 kts 88°
2026-04-25 18:29 47.05252 -28.59859 37083 ft 519 kts 88°
2026-04-25 18:30 47.05494 -28.52052 37091 ft 519 kts 88°
2026-04-25 18:30 47.05759 -28.43285 37089 ft 519 kts 88°
2026-04-25 18:31 47.06072 -28.32679 37090 ft 519 kts 88°
2026-04-25 18:31 47.06374 -28.22090 37091 ft 520 kts 88°
2026-04-25 18:32 47.06664 -28.11573 37093 ft 520 kts 88°
2026-04-25 18:32 47.06699 -28.10294 37095 ft 520 kts 88°
2026-04-25 18:33 47.06751 -28.08365 37090 ft 520 kts 88°
2026-04-25 18:33 47.07022 -27.98094 37096 ft 520 kts 88°
2026-04-25 18:34 47.07291 -27.87567 37094 ft 520 kts 88°
2026-04-25 18:34 47.07551 -27.76999 37099 ft 519 kts 88°
2026-04-25 18:35 47.07802 -27.66399 37096 ft 519 kts 88°
2026-04-25 18:35 47.08043 -27.55809 37101 ft 519 kts 88°
2026-04-25 18:36 47.08274 -27.45223 37102 ft 519 kts 88°
2026-04-25 18:36 47.08494 -27.34680 37105 ft 519 kts 88°
2026-04-25 18:37 47.08705 -27.24080 37100 ft 518 kts 88°
2026-04-25 18:37 47.08906 -27.13541 37104 ft 518 kts 88°
2026-04-25 18:38 47.09097 -27.03008 37105 ft 518 kts 88°
2026-04-25 18:38 47.09280 -26.92366 37103 ft 517 kts 88°
2026-04-25 18:39 47.09451 -26.81882 37107 ft 517 kts 88°
2026-04-25 18:39 47.09613 -26.71336 37106 ft 516 kts 88°
2026-04-25 18:40 47.09766 -26.60799 37106 ft 516 kts 89°
2026-04-25 18:40 47.09907 -26.50395 37109 ft 515 kts 89°
2026-04-25 18:41 47.10039 -26.39883 37107 ft 515 kts 89°
2026-04-25 18:41 47.10162 -26.29377 37106 ft 514 kts 89°
2026-04-25 18:42 47.10251 -26.21289 37106 ft 514 kts 89°
2026-04-25 18:42 47.10372 -26.09131 37108 ft 514 kts 89°
2026-04-25 18:43 47.10458 -25.99710 37109 ft 514 kts 89°
2026-04-25 18:43 47.10544 -25.89261 37109 ft 514 kts 89°
2026-04-25 18:44 47.10621 -25.78804 37105 ft 514 kts 89°
2026-04-25 18:44 47.10676 -25.68331 37108 ft 514 kts 89°
2026-04-25 18:45 47.10730 -25.58393 37110 ft 514 kts 89°
2026-04-25 18:45 47.10790 -25.48100 37106 ft 514 kts 89°
2026-04-25 18:46 47.10820 -25.41021 37107 ft 514 kts 89°
2026-04-25 18:46 47.10836 -25.36399 37107 ft 514 kts 89°